Location: Stony Creek
(40.9500°S, 175.8500°E)
Time: 10:07:03
(UTC+00:00)

ATLAS 3B R/B - Pass Details

Date: 15 May 2026
Orbit: 937 x 1256 km, 63.8° (Epoch: 10 June)

Event Time Altitude Azimuth Distance (km) Brightness Sun altitude
Exits shadow 18:20:32 - 209° (SSW) 3,493 5.0 -10.9°
Reaches altitude 10° 18:22:53 10° 200° (SSW) 2,714 4.5 -10.5°
Maximum altitude 18:28:37 35° 135° (SE) 1,565 3.9 -9.5°
Drops below altitude 10° 18:34:37 10° 71° (ENE) 2,843 6.7 -8.4°
Sets 18:37:35 0° 61° (ENE) 3,840 7.7 -7.9°
